Weather in Damanhur

Egypt     31°02′07″N   30°28′07″E
temp.,
°C
wind,
m/s
gust,
m/s
humid.,
%
clouds,
%
prec.,
mm/h
press.,
hPa
HPBL,
m
13 may, thu
thu1323:00+17n22785 0.0 101332
02:00+15nnw118594 0.0 101211
05:00+15n00870 0.0 101211
08:00+23n12450 0.0 1013539
11:00+31nnw33170 0.0 10121440
14:00+32nnw75140 0.0 10121449
17:00+28nnw66190 0.0 1013848
20:00+20nne36530 0.0 101495
14 may, fri
fri1423:00+18nne22680 0.0 101525
02:00+17ene22710 0.0 101411
05:00+16e22710 0.0 101412
08:00+25e23330 0.0 1015458
11:00+33nne35160 0.0 10141569
14:00+34n77170 0.0 10141484
17:00+29n67250 0.0 1014803
20:00+20nne36580 0.0 1014131
15 may, sat
sat1523:00+18nne33770 0.0 101559
02:00+18ne22790 0.0 101323
05:00+17ene22820 0.0 101311
08:00+25nne22400 0.0 1014516
11:00+33nnw56190 0.0 10131514
14:00+33nnw77170 0.0 10121339
17:00+29nnw66240 0.0 1011765
20:00+20n34700 0.0 101279
16 may, sun
sun1623:00+18ne22850 0.0 101230
02:00+17e22850 0.0 101011
05:00+16ese11810 0.0 101011
08:00+26e11330 0.0 1010433
11:00+34nw33130 0.0 10091579
14:00+33nw76160 0.0 10081159
17:00+28nnw66240 0.0 1009715
20:00+20nnw48605 0.0 1010204
17 may, mon
mon1723:00+19nnw22795 0.0 101145
02:00+18nw35845 0.0 1010116
05:00+17nw22890 0.0 101138
08:00+23nw34540 0.0 1012982
11:00+29nw44270 0.0 10111496
14:00+30nw75265 0.0 10111503
17:00+26nnw66390 0.0 1012968
20:00+20nnw37720 0.0 1013229